TimeCDT,TemperatureF,Dew PointF,Humidity,Sea Level PressureIn,VisibilityMPH,Wind Direction,Wind SpeedMPH,Gust SpeedMPH,PrecipitationIn,Events,Conditions,WindDirDegrees,DateUTC
12:15 AM,66.2,53.6,64,29.97,10.0,SE,13.8,19.6,N/A,,Clear,140,2013-05-08 05:15:00
12:35 AM,64.4,53.6,68,29.97,10.0,SE,12.7,18.4,N/A,,Clear,140,2013-05-08 05:35:00
12:55 AM,64.4,53.6,68,29.97,10.0,SSE,11.5,17.3,N/A,,Clear,150,2013-05-08 05:55:00
1:15 AM,64.4,53.6,68,29.96,10.0,SSE,13.8,-,N/A,,Clear,150,2013-05-08 06:15:00
1:35 AM,64.4,53.6,68,29.96,10.0,SSE,12.7,19.6,N/A,,Clear,150,2013-05-08 06:35:00
1:55 AM,64.4,53.6,68,29.94,10.0,SSE,11.5,-,N/A,,Clear,150,2013-05-08 06:55:00
2:15 AM,62.6,53.6,72,29.93,10.0,SSE,12.7,-,N/A,,Clear,160,2013-05-08 07:15:00
2:35 AM,62.6,53.6,72,29.93,10.0,SSE,12.7,-,N/A,,Clear,160,2013-05-08 07:35:00
2:55 AM,62.6,53.6,72,29.92,10.0,SSE,15.0,-,N/A,,Clear,160,2013-05-08 07:55:00
3:15 AM,62.6,53.6,72,29.91,10.0,SSE,19.6,26.5,N/A,,Clear,160,2013-05-08 08:15:00
3:35 AM,62.6,53.6,72,29.90,10.0,SSE,18.4,23.0,N/A,,Clear,160,2013-05-08 08:35:00
3:55 AM,60.8,53.6,77,29.90,10.0,SSE,15.0,23.0,N/A,,Clear,160,2013-05-08 08:55:00
4:15 AM,60.8,53.6,77,29.90,10.0,SSE,15.0,-,N/A,,Clear,160,2013-05-08 09:15:00
4:35 AM,60.8,53.6,77,29.91,10.0,SSE,12.7,-,N/A,,Clear,160,2013-05-08 09:35:00
4:55 AM,60.8,53.6,77,29.90,10.0,SSE,12.7,-,N/A,,Clear,160,2013-05-08 09:55:00
5:15 AM,60.8,53.6,77,29.91,10.0,SSE,13.8,19.6,N/A,,Clear,160,2013-05-08 10:15:00
5:35 AM,60.8,51.8,72,29.90,10.0,SSE,12.7,17.3,N/A,,Clear,150,2013-05-08 10:35:00
5:55 AM,60.8,51.8,72,29.90,10.0,SSE,10.4,-,N/A,,Clear,150,2013-05-08 10:55:00
6:15 AM,60.8,51.8,72,29.90,10.0,SSE,10.4,-,N/A,,Clear,150,2013-05-08 11:15:00
6:35 AM,60.8,51.8,72,29.90,10.0,SSE,8.1,-,N/A,,Clear,150,2013-05-08 11:35:00
6:55 AM,60.8,53.6,77,29.91,10.0,SSE,8.1,-,N/A,,Clear,160,2013-05-08 11:55:00
7:15 AM,60.8,53.6,77,29.92,10.0,SSE,9.2,-,N/A,,Clear,160,2013-05-08 12:15:00
7:35 AM,60.8,53.6,77,29.93,10.0,South,9.2,-,N/A,,Clear,170,2013-05-08 12:35:00
7:55 AM,62.6,53.6,72,29.94,10.0,SSE,10.4,-,N/A,,Clear,160,2013-05-08 12:55:00
8:15 AM,62.6,53.6,72,29.94,10.0,South,10.4,-,N/A,,Clear,170,2013-05-08 13:15:00
8:35 AM,64.4,55.4,73,29.94,10.0,South,13.8,17.3,N/A,,Clear,170,2013-05-08 13:35:00
8:55 AM,68.0,55.4,64,29.94,10.0,South,13.8,-,N/A,,Clear,170,2013-05-08 13:55:00
9:15 AM,68.0,55.4,64,29.95,10.0,South,13.8,-,N/A,,Clear,170,2013-05-08 14:15:00
9:35 AM,69.8,57.2,64,29.95,10.0,South,12.7,-,N/A,,Clear,170,2013-05-08 14:35:00
9:55 AM,69.8,55.4,60,29.95,10.0,South,17.3,23.0,N/A,,Clear,180,2013-05-08 14:55:00
10:15 AM,73.4,59.0,61,29.95,10.0,South,15.0,18.4,N/A,,Clear,170,2013-05-08 15:15:00
10:35 AM,73.4,59.0,61,29.95,10.0,South,15.0,20.7,N/A,,Clear,170,2013-05-08 15:35:00
10:55 AM,77.0,59.0,54,29.97,10.0,South,10.4,17.3,N/A,,Clear,180,2013-05-08 15:55:00
11:15 AM,75.2,59.0,57,29.97,10.0,South,8.1,-,N/A,,Mostly Cloudy,180,2013-05-08 16:15:00
11:35 AM,78.8,60.8,54,29.97,10.0,SSW,8.1,-,N/A,,Mostly Cloudy,210,2013-05-08 16:35:00
11:55 AM,78.8,60.8,54,29.97,10.0,SSE,8.1,-,N/A,,Mostly Cloudy,160,2013-05-08 16:55:00
12:15 PM,78.8,60.8,54,29.96,10.0,South,10.4,-,N/A,,Mostly Cloudy,180,2013-05-08 17:15:00
12:35 PM,80.6,60.8,51,29.95,10.0,SSE,9.2,-,N/A,,Scattered Clouds,160,2013-05-08 17:35:00
12:55 PM,80.6,62.6,54,29.94,10.0,SSE,15.0,-,N/A,,Clear,150,2013-05-08 17:55:00
1:15 PM,80.6,60.8,51,29.93,10.0,SSE,16.1,19.6,N/A,,Scattered Clouds,150,2013-05-08 18:15:00
1:35 PM,82.4,60.8,48,29.93,10.0,SSE,15.0,24.2,N/A,,Clear,160,2013-05-08 18:35:00
1:55 PM,82.4,59.0,45,29.92,10.0,SSE,18.4,25.3,N/A,,Clear,160,2013-05-08 18:55:00
2:15 PM,82.4,59.0,45,29.91,10.0,South,12.7,-,N/A,,Clear,170,2013-05-08 19:15:00
2:35 PM,82.4,57.2,42,29.91,10.0,South,17.3,25.3,N/A,,Clear,180,2013-05-08 19:35:00
2:55 PM,82.4,59.0,45,29.91,10.0,SSE,18.4,26.5,N/A,,Clear,150,2013-05-08 19:55:00
3:35 PM,82.4,55.4,39,29.90,10.0,SSE,16.1,24.2,N/A,,Clear,150,2013-05-08 20:35:00
3:55 PM,80.6,55.4,42,29.89,10.0,SSE,11.5,23.0,N/A,,Clear,160,2013-05-08 20:55:00
4:15 PM,82.4,53.6,37,29.88,10.0,SSE,17.3,24.2,N/A,,Clear,160,2013-05-08 21:15:00
4:35 PM,80.6,53.6,39,29.88,10.0,SSE,17.3,23.0,N/A,,Clear,160,2013-05-08 21:35:00
4:55 PM,82.4,53.6,37,29.86,10.0,SE,19.6,24.2,N/A,,Clear,140,2013-05-08 21:55:00
5:15 PM,80.6,53.6,39,29.85,10.0,SE,12.7,23.0,N/A,,Clear,140,2013-05-08 22:15:00
5:35 PM,78.8,51.8,39,29.85,10.0,SSE,13.8,17.3,N/A,,Clear,160,2013-05-08 22:35:00
5:55 PM,78.8,50.0,36,29.85,10.0,SSE,11.5,20.7,N/A,,Clear,150,2013-05-08 22:55:00
6:15 PM,78.8,50.0,36,29.85,10.0,SSE,12.7,-,N/A,,Clear,150,2013-05-08 23:15:00
6:35 PM,77.0,50.0,39,29.84,10.0,SSE,13.8,19.6,N/A,,Clear,150,2013-05-08 23:35:00
6:55 PM,77.0,50.0,39,29.84,10.0,SSE,10.4,-,N/A,,Clear,150,2013-05-08 23:55:00
7:15 PM,77.0,51.8,41,29.83,10.0,SSE,13.8,25.3,N/A,Thunderstorm,Clear,150,2013-05-09 00:15:00
7:35 PM,77.0,51.8,41,29.83,10.0,SSE,17.3,24.2,N/A,,Clear,150,2013-05-09 00:35:00
7:55 PM,75.2,53.6,47,29.83,10.0,SE,17.3,21.9,N/A,Thunderstorm,Scattered Clouds,140,2013-05-09 00:55:00
8:15 PM,75.2,53.6,47,29.84,10.0,SE,15.0,-,N/A,Thunderstorm,Thunderstorm,130,2013-05-09 01:15:00
8:35 PM,73.4,55.4,53,29.85,10.0,ESE,11.5,19.6,N/A,Thunderstorm,Unknown,120,2013-05-09 01:35:00
8:55 PM,62.6,59.0,88,29.96,5.0,West,18.4,38.0,0.07,Rain-Thunderstorm,Heavy Thunderstorms and Rain,260,2013-05-09 01:55:00
9:15 PM,60.8,60.8,100,29.95,1.8,SSW,3.5,-,0.52,Rain-Thunderstorm,Heavy Thunderstorms and Rain,210,2013-05-09 02:15:00
9:35 PM,60.8,60.8,100,29.87,0.5,ESE,23.0,33.4,1.07,Thunderstorm,Thunderstorm,110,2013-05-09 02:35:00
9:55 PM,60.8,59.0,94,29.95,10.0,West,6.9,-,1.07,Rain-Thunderstorm,Light Thunderstorms and Rain,270,2013-05-09 02:55:00
10:15 PM,60.8,59.0,94,29.90,10.0,East,5.8,-,N/A,Thunderstorm,Mostly Cloudy,100,2013-05-09 03:15:00
10:35 PM,62.6,60.8,94,29.88,10.0,ESE,9.2,-,N/A,,Light Drizzle,110,2013-05-09 03:35:00
10:55 PM,62.6,60.8,94,29.90,10.0,ENE,6.9,-,N/A,,Scattered Clouds,70,2013-05-09 03:55:00
11:15 PM,60.8,60.8,100,29.92,10.0,Calm,Calm,-,N/A,,Clear,0,2013-05-09 04:15:00
11:55 PM,60.8,60.8,100,29.92,10.0,ENE,5.8,-,N/A,,Mostly Cloudy,60,2013-05-09 04:55:00